FW3157 Thessaloniki GR current weather conditions

sailwx.info

Wind from 016 at 6 knots gusting 9

Air temperature 23.9° C
Dewpoint 17.8° C

Last reported at 2020-Aug-07 23:07 UTC.
Time now 2020-Aug-08 00:05 UTC

Location: N 40°35' E 022°57'.
View on Google Maps.

See reports from other nearby stations

  
Tides and Currents Weather Stations Pressure Air Temp Water Temp Dewpoint Dewpoint Depression Visibility Wind Speed Wind Dir Waves Ship Positions
date/time (UTC)wind fromknots sea level pressurealtimeterstation pressurevisibilityair tempwater tempwave heightnotes
2020-Aug-07 23:07 016 6 gusting 9 23.9
2020-Aug-07 23:02 285 6 gusting 9 23.9
2020-Aug-07 22:57 004 6 gusting 9 23.9
2020-Aug-07 22:52 339 6 gusting 9 23.9
2020-Aug-07 22:47 312 5 gusting 9 23.9
2020-Aug-07 22:42 307 4 gusting 7 23.9
2020-Aug-07 22:37 347 4 gusting 8 23.9
2020-Aug-07 22:32 321 4 gusting 8 23.9
2020-Aug-07 22:27 298 4 gusting 8 23.9
2020-Aug-07 22:22 296 3 gusting 8 23.9
2020-Aug-07 22:17 356 3 gusting 6 23.9
2020-Aug-07 22:12 317 3 gusting 9 23.9
2020-Aug-07 22:07 331 3 gusting 9 24.4
2020-Aug-07 22:02 018 3 gusting 9 23.9
2020-Aug-07 21:57 307 4 gusting 9 24.4
2020-Aug-07 21:52 278 2 gusting 8 24.4
2020-Aug-07 21:47 007 1 gusting 4 24.4
2020-Aug-07 21:42 020 2 gusting 6 24.4
2020-Aug-07 21:37 353 2 gusting 6 24.4
2020-Aug-07 21:32 307 2 gusting 6 24.4
2020-Aug-07 21:27 011 4 gusting 9 24.4
2020-Aug-07 21:22 314 4 gusting 9 24.4
2020-Aug-07 21:17 279 4 gusting 7 24.4
2020-Aug-07 21:12 316 4 gusting 11 24.4
2020-Aug-07 21:07 311 4 gusting 11 24.4
2020-Aug-07 21:02 300 5 gusting 8 24.4
2020-Aug-07 20:57 296 5 gusting 8 24.4
2020-Aug-07 20:52 311 4 gusting 6 25.0
2020-Aug-07 20:47 290 2 gusting 6 25.0
2020-Aug-07 20:42 333 1 gusting 4 25.0
2020-Aug-07 20:37 263 1 gusting 6 25.0
2020-Aug-07 20:32 321 2 gusting 6 25.0
2020-Aug-07 20:27 034 3 gusting 7 25.0
2020-Aug-07 20:22 319 3 gusting 8 25.0
2020-Aug-07 20:17 330 4 gusting 8 25.0
2020-Aug-07 20:12 341 4 gusting 12 25.0
2020-Aug-07 20:07 321 4 gusting 12 25.0
2020-Aug-07 20:02 033 4 gusting 14 25.0
2020-Aug-07 19:57 326 5 gusting 14 25.0
2020-Aug-07 19:52 352 5 gusting 10 24.4
2020-Aug-07 19:47 030 4 gusting 10 24.4
2020-Aug-07 19:42 305 4 gusting 9 24.4
2020-Aug-07 19:37 030 4 gusting 9 24.4
2020-Aug-07 19:32 037 4 gusting 9 24.4
2020-Aug-07 19:27 008 4 gusting 9 24.4
2020-Aug-07 19:22 356 5 gusting 9 24.4
2020-Aug-07 19:17 010 5 gusting 9 24.4
2020-Aug-07 19:12 032 4 gusting 9 24.4
2020-Aug-07 19:07 330 3 gusting 8 24.4
2020-Aug-07 19:02 320 3 gusting 8 24.4
2020-Aug-07 18:57 326 3 gusting 7 24.4
2020-Aug-07 18:52 338 4 gusting 7 24.4
2020-Aug-07 18:47 311 4 gusting 7 25.0
2020-Aug-07 18:42 020 3 gusting 8 25.0
2020-Aug-07 18:37 345 4 gusting 12 25.0
2020-Aug-07 18:32 023 5 gusting 12 25.0
2020-Aug-07 18:27 048 3 gusting 7 25.0
2020-Aug-07 18:22 036 2 gusting 6 25.0
2020-Aug-07 18:17 030 3 gusting 9 25.0
2020-Aug-07 18:12 320 4 gusting 9 25.0
2020-Aug-07 18:07 316 4 gusting 8 25.0
2020-Aug-07 18:02 329 4 gusting 8 25.0
2020-Aug-07 17:57 292 4 gusting 8 25.0
2020-Aug-07 17:52 298 4 gusting 8 25.0
2020-Aug-07 17:47 324 4 gusting 7 25.6
2020-Aug-07 17:42 301 3 gusting 6 25.6
2020-Aug-07 17:37 323 2 gusting 6 25.6
2020-Aug-07 17:32 304 3 gusting 6 25.6
2020-Aug-07 17:27 349 3 gusting 6 25.6
2020-Aug-07 17:22 354 3 gusting 6 25.6
2020-Aug-07 17:17 068 3 gusting 6 26.1
2020-Aug-07 17:12 015 3 gusting 7 26.1
2020-Aug-07 17:07 039 3 gusting 7 26.1
2020-Aug-07 17:02 327 2 gusting 6 26.1
2020-Aug-07 16:57 297 2 gusting 5 26.1
2020-Aug-07 16:52 303 3 gusting 6 26.7
2020-Aug-07 16:47 338 3 gusting 6 26.7
2020-Aug-07 16:42 311 3 gusting 6 26.7
2020-Aug-07 16:37 309 3 gusting 6 26.7
2020-Aug-07 16:32 306 4 gusting 8 26.7
2020-Aug-07 16:27 320 5 gusting 8 26.7
2020-Aug-07 16:22 302 5 gusting 8 26.7
2020-Aug-07 16:17 282 5 gusting 10 26.7
2020-Aug-07 16:12 068 5 gusting 10 26.7
2020-Aug-07 16:07 347 5 gusting 8 26.7
2020-Aug-07 16:02 294 4 gusting 8 26.7
2020-Aug-07 15:57 300 3 gusting 8 26.7
2020-Aug-07 15:52 032 3 gusting 8 27.2
2020-Aug-07 15:47 311 4 gusting 6 27.2
2020-Aug-07 15:42 319 4 gusting 7 27.2
2020-Aug-07 15:37 331 4 gusting 7 27.2
2020-Aug-07 15:32 307 2 gusting 7 27.8
2020-Aug-07 15:27 299 2 gusting 5 27.8
2020-Aug-07 15:22 269 3 gusting 6 27.8
2020-Aug-07 15:17 321 4 gusting 6 27.8
2020-Aug-07 15:12 314 3 gusting 6 27.8
2020-Aug-07 15:07 308 2 gusting 6 28.3
2020-Aug-07 15:02 328 3 gusting 6 28.3
2020-Aug-07 14:57 328 3 gusting 6 28.3
2020-Aug-07 14:52 342 3 gusting 6 28.3
2020-Aug-07 14:47 307 2 gusting 5 27.8
2020-Aug-07 14:42 286 3 gusting 6 27.8
2020-Aug-07 14:37 342 3 gusting 6 27.8
2020-Aug-07 14:32 326 3 gusting 6 27.8
2020-Aug-07 14:27 293 4 gusting 7 27.8
2020-Aug-07 14:22 316 4 gusting 7 27.2
2020-Aug-07 14:17 027 4 gusting 9 27.2
2020-Aug-07 14:12 326 4 gusting 9 27.2
2020-Aug-07 14:07 318 4 gusting 9 27.2
2020-Aug-07 14:02 341 4 gusting 9 27.2
2020-Aug-07 13:57 288 3 gusting 6 27.2
2020-Aug-07 13:52 009 3 gusting 7 26.7
2020-Aug-07 13:47 333 3 gusting 7 26.7
2020-Aug-07 13:42 321 3 gusting 9 26.7
2020-Aug-07 13:37 088 4 gusting 9 26.7
2020-Aug-07 13:32 319 3 gusting 6 26.7
2020-Aug-07 13:27 037 4 gusting 7 26.7
2020-Aug-07 13:22 309 5 gusting 10 26.7
2020-Aug-07 13:17 017 5 gusting 10 26.7
2020-Aug-07 13:12 066 5 gusting 10 26.7
2020-Aug-07 13:07 315 4 gusting 7 26.7
2020-Aug-07 13:02 311 5 gusting 9 26.7
2020-Aug-07 12:57 258 5 gusting 9 26.7
2020-Aug-07 12:52 330 4 gusting 9 26.7
2020-Aug-07 12:47 308 5 gusting 7 26.7
2020-Aug-07 12:42 322 5 gusting 7 26.1
2020-Aug-07 12:37 319 5 gusting 10 26.1
2020-Aug-07 12:32 287 6 gusting 10 26.1
2020-Aug-07 12:27 291 5 gusting 10 26.1
2020-Aug-07 12:22 288 5 gusting 11 26.1
2020-Aug-07 12:17 327 6 gusting 11 26.1
2020-Aug-07 12:12 288 6 gusting 10 26.1
2020-Aug-07 12:07 298 5 gusting 9 25.6
2020-Aug-07 12:02 330 5 gusting 8 26.1
2020-Aug-07 11:57 307 5 gusting 9 25.6
2020-Aug-07 11:52 314 5 gusting 10 25.6
2020-Aug-07 11:47 329 5 gusting 10 25.6
2020-Aug-07 11:42 298 6 gusting 11 25.6
2020-Aug-07 11:37 309 6 gusting 12 25.6
2020-Aug-07 11:32 300 5 gusting 12 25.6
2020-Aug-07 11:27 293 5 gusting 10 25.6
2020-Aug-07 11:22 297 5 gusting 10 25.6
2020-Aug-07 11:17 297 4 gusting 9 25.0
2020-Aug-07 11:12 328 4 gusting 8 25.0
2020-Aug-07 11:07 291 4 gusting 8 25.0
2020-Aug-07 11:02 285 4 gusting 7 25.0
2020-Aug-07 10:57 228 5 gusting 8 25.0
2020-Aug-07 10:52 309 5 gusting 8 25.0
2020-Aug-07 10:47 290 5 gusting 10 25.0
2020-Aug-07 10:42 283 4 gusting 10 24.4
2020-Aug-07 10:37 287 4 gusting 8 24.4
2020-Aug-07 10:32 297 4 gusting 9 24.4
2020-Aug-07 10:27 273 5 gusting 10 23.9
2020-Aug-07 10:22 272 6 gusting 11 23.9
2020-Aug-07 10:17 334 7 gusting 13 23.9
2020-Aug-07 10:12 323 7 gusting 13 23.9
2020-Aug-07 10:07 023 6 gusting 13 23.9
2020-Aug-07 10:02 259 5 gusting 13 23.9
2020-Aug-07 09:57 302 4 gusting 13 23.9
2020-Aug-07 09:52 294 5 gusting 11 23.9
2020-Aug-07 09:47 308 5 gusting 10 23.9
2020-Aug-07 09:42 295 5 gusting 10 23.9
2020-Aug-07 09:37 326 4 gusting 8 23.3
2020-Aug-07 09:32 300 4 gusting 8 23.3
2020-Aug-07 09:27 282 4 gusting 7 23.3
2020-Aug-07 09:22 280 5 gusting 9 22.8
2020-Aug-07 09:17 317 5 gusting 9 22.8
2020-Aug-07 09:12 322 4 gusting 9 22.8
2020-Aug-07 09:07 281 4 gusting 9 22.8
2020-Aug-07 09:02 283 4 gusting 9 22.2
2020-Aug-07 08:57 296 4 gusting 11 22.2
2020-Aug-07 08:51 316 5 gusting 11 22.2
2020-Aug-07 08:46 304 5 gusting 9 21.7
2020-Aug-07 08:41 312 5 gusting 8 21.7
2020-Aug-07 08:36 281 5 gusting 10 21.7
2020-Aug-07 08:31 319 5 gusting 11 21.7
2020-Aug-07 08:26 338 5 gusting 11 21.1
2020-Aug-07 08:21 328 5 gusting 9 21.1
2020-Aug-07 08:16 323 4 gusting 9 21.1
2020-Aug-07 08:11 295 3 gusting 6 21.1
2020-Aug-07 08:06 298 3 gusting 7 20.6
2020-Aug-07 08:01 325 3 gusting 7 20.6
2020-Aug-07 07:56 288 3 gusting 6 20.6
2020-Aug-07 07:51 319 2 gusting 5 20.6
2020-Aug-07 07:46 321 1 gusting 5 20.6
2020-Aug-07 07:41 287 2 gusting 4 20.6
2020-Aug-07 07:36 309 2 gusting 4 20.6
2020-Aug-07 07:31 307 2 gusting 4 20.6
2020-Aug-07 07:26 300 2 gusting 4 20.6
2020-Aug-07 07:21 004 2 gusting 5 20.6
2020-Aug-07 07:16 322 1 gusting 5 20.6
2020-Aug-07 07:11 314 1 gusting 4 20.6
2020-Aug-07 07:06 307 1 gusting 3 20.6
2020-Aug-07 07:01 320 1 gusting 3 20.0
2020-Aug-07 06:56 307 1 gusting 3 20.0
2020-Aug-07 06:51 328 0 gusting 2 19.4
2020-Aug-07 06:46 315 1 gusting 2 20.0
2020-Aug-07 06:41 319 2 gusting 5 19.4
2020-Aug-07 06:36 309 3 gusting 5 19.4
2020-Aug-07 06:31 285 3 gusting 6 20.0
2020-Aug-07 06:26 304 2 gusting 6 19.4
2020-Aug-07 06:21 279 3 gusting 7 19.4
2020-Aug-07 06:16 311 3 gusting 7 19.4
2020-Aug-07 06:12 306 3 gusting 6 19.4
2020-Aug-07 06:06 305 3 gusting 6 19.4
2020-Aug-07 06:01 330 3 gusting 9 19.4
2020-Aug-07 05:56 307 3 gusting 9 19.4
2020-Aug-07 05:51 335 4 gusting 9 19.4
2020-Aug-07 05:46 022 5 gusting 9 19.4
2020-Aug-07 05:41 035 4 gusting 7 19.4
2020-Aug-07 05:36 359 3 gusting 6 19.4
2020-Aug-07 05:31 015 3 gusting 6 19.4
2020-Aug-07 05:26 340 3 gusting 6 19.4
2020-Aug-07 05:21 340 3 gusting 6 18.9
2020-Aug-07 05:16 282 4 gusting 8 18.9
2020-Aug-07 05:11 309 6 gusting 10 18.9
2020-Aug-07 05:06 311 6 gusting 10 18.9
2020-Aug-07 05:01 326 5 gusting 9 18.9
2020-Aug-07 04:56 323 5 gusting 11 19.4
2020-Aug-07 04:51 318 6 gusting 11 19.4
2020-Aug-07 04:46 328 6 gusting 12 19.4
2020-Aug-07 04:41 343 4 gusting 12 19.4
2020-Aug-07 04:36 302 3 gusting 7 19.4
2020-Aug-07 04:31 003 3 gusting 7 19.4
2020-Aug-07 04:26 293 3 gusting 6 19.4
2020-Aug-07 04:21 338 3 gusting 6 19.4
2020-Aug-07 04:16 300 2 gusting 6 19.4
2020-Aug-07 04:11 305 2 gusting 6 18.9
2020-Aug-07 04:06 319 2 gusting 6 18.9
2020-Aug-07 04:01 314 3 gusting 6 18.9
2020-Aug-07 03:56 304 3 gusting 6 18.9
2020-Aug-07 03:51 309 4 gusting 7 18.9
2020-Aug-07 03:46 319 5 gusting 8 18.9
2020-Aug-07 03:41 335 6 gusting 11 18.9
2020-Aug-07 03:36 315 6 gusting 11 18.9
2020-Aug-07 03:31 337 6 gusting 12 18.9
2020-Aug-07 03:26 323 7 gusting 12 18.9
2020-Aug-07 03:21 303 7 gusting 11 18.9
2020-Aug-07 03:16 318 6 gusting 11 18.9
2020-Aug-07 03:11 325 6 gusting 13 18.9
2020-Aug-07 03:06 323 6 gusting 13 18.9
2020-Aug-07 03:01 309 7 gusting 12 18.9
2020-Aug-07 02:56 327 6 gusting 12 18.9
2020-Aug-07 02:51 326 6 gusting 12 18.9
2020-Aug-07 02:46 311 6 gusting 12 18.9
2020-Aug-07 02:41 283 6 gusting 12 19.4
2020-Aug-07 02:36 302 5 gusting 12 19.4
2020-Aug-07 02:31 310 4 gusting 9 18.9
2020-Aug-07 02:26 329 4 gusting 8 18.9
2020-Aug-07 02:21 037 5 gusting 9 18.9
2020-Aug-07 02:16 325 4 gusting 9 18.9
2020-Aug-07 02:11 293 3 gusting 7 18.9
2020-Aug-07 02:06 356 4 gusting 7 18.9
2020-Aug-07 02:01 323 6 gusting 13 18.9
2020-Aug-07 01:56 330 6 gusting 13 18.9
2020-Aug-07 01:51 038 6 gusting 13 18.9
2020-Aug-07 01:46 050 6 gusting 14 19.4
2020-Aug-07 01:41 025 7 gusting 14 19.4
2020-Aug-07 01:36 304 7 gusting 13 19.4
2020-Aug-07 01:31 309 7 gusting 13 20.0
2020-Aug-07 01:26 044 6 gusting 13 20.0
2020-Aug-07 01:21 303 6 gusting 13 19.4
2020-Aug-07 01:16 331 5 gusting 13 20.0
2020-Aug-07 01:11 324 6 gusting 15 20.6
2020-Aug-07 01:06 326 7 gusting 15 20.6
2020-Aug-07 01:01 041 6 gusting 14 20.6
2020-Aug-07 00:56 343 8 gusting 15 20.6
2020-Aug-07 00:51 329 8 gusting 15 21.1
2020-Aug-07 00:46 050 6 gusting 12 21.1
2020-Aug-07 00:41 354 4 gusting 8 21.1
2020-Aug-07 00:36 001 5 gusting 10 21.1
2020-Aug-07 00:31 060 6 gusting 10 21.1
2020-Aug-07 00:26 036 5 gusting 9 21.1
2020-Aug-07 00:21 037 4 gusting 12 21.1
2020-Aug-07 00:16 337 6 gusting 13 21.1
2020-Aug-07 00:11 015 6 gusting 13 21.1
2020-Aug-07 00:06 316 6 gusting 13 21.1
2020-Aug-07 00:01 129 6 gusting 12 21.1
2020-Aug-06 23:56 324 6 gusting 10 21.1
2020-Aug-06 23:51 340 5 gusting 9 21.1
2020-Aug-06 23:46 322 4 gusting 6 21.1
2020-Aug-06 23:41 322 4 gusting 7 21.7
2020-Aug-06 23:36 319 3 gusting 8 21.7
2020-Aug-06 23:31 332 3 gusting 8 21.7
2020-Aug-06 23:26 022 4 gusting 9 21.7
2020-Aug-06 23:21 015 5 gusting 9 22.2
2020-Aug-06 23:16 035 4 gusting 8 22.2
2020-Aug-06 23:11 049 3 gusting 6 22.2
2020-Aug-06 23:06 328 2 gusting 5 21.7
2020-Aug-06 23:01 302 2 gusting 6 21.7
2020-Aug-06 22:56 348 3 gusting 6 21.7
2020-Aug-06 22:51 295 3 gusting 6 21.7
2020-Aug-06 22:46 291 3 gusting 6 21.7
2020-Aug-06 22:41 192 3 gusting 6 21.7
2020-Aug-06 22:36 284 2 gusting 6 21.7
2020-Aug-06 22:31 314 2 gusting 5 21.7
2020-Aug-06 22:26 317 2 gusting 6 21.7
2020-Aug-06 22:21 318 3 gusting 6 21.7
2020-Aug-06 22:16 318 4 gusting 6 21.7
2020-Aug-06 22:11 321 3 gusting 6 22.2
2020-Aug-06 22:06 319 3 gusting 6 22.2
2020-Aug-06 22:01 340 3 gusting 6 22.2
2020-Aug-06 21:56 323 3 gusting 6 22.2
2020-Aug-06 21:51 318 3 gusting 6 22.2
2020-Aug-06 21:46 306 2 gusting 6 22.2
2020-Aug-06 21:41 310 2 gusting 6 22.2
2020-Aug-06 21:36 326 1 gusting 3 22.2
2020-Aug-06 21:31 330 1 gusting 3 22.2
2020-Aug-06 21:26 316 0 gusting 2 22.2
2020-Aug-06 21:21 319 0 gusting 1 22.2
2020-Aug-06 21:16 328 0 gusting 1 22.2
2020-Aug-06 21:11 330 0 gusting 4 21.7
2020-Aug-06 21:05 302 2 gusting 4 21.7
2020-Aug-06 20:59 297 2 gusting 5 21.7
2020-Aug-06 20:54 284 3 gusting 5 22.2
2020-Aug-06 20:49 284 3 gusting 5 22.2
2020-Aug-06 20:44 267 2 gusting 5 22.2
2020-Aug-06 20:39 276 0 gusting 2 22.2
2020-Aug-06 20:34 287 0 gusting 1 22.2
2020-Aug-06 20:29 279 0 gusting 1 22.2
2020-Aug-06 20:24 293 0 gusting 1 22.2
2020-Aug-06 20:19 301 1 gusting 4 21.7
2020-Aug-06 20:14 027 1 gusting 4 21.7
2020-Aug-06 20:09 307 1 gusting 4 21.7
2020-Aug-06 20:04 326 1 gusting 5 22.2
2020-Aug-06 19:59 284 1 gusting 5 22.2
2020-Aug-06 19:54 275 0 gusting 2 22.2
2020-Aug-06 19:49 210 0 gusting 2 22.2
2020-Aug-06 19:44 239 22.2
2020-Aug-06 19:39 088 22.2
2020-Aug-06 19:34 088 22.2
2020-Aug-06 19:29 034 0 gusting 2 22.2
2020-Aug-06 19:24 030 1 gusting 3 22.2
2020-Aug-06 19:19 025 1 gusting 3 22.2
2020-Aug-06 19:14 032 1 gusting 3 22.2
2020-Aug-06 19:09 025 1 gusting 5 22.2
2020-Aug-06 19:04 328 2 gusting 5 21.7
2020-Aug-06 18:59 050 3 gusting 6 21.7
2020-Aug-06 18:54 017 3 gusting 6 21.7
2020-Aug-06 18:49 317 4 gusting 7 21.7
2020-Aug-06 18:44 004 5 gusting 9 21.7
2020-Aug-06 18:39 295 5 gusting 9 21.7
2020-Aug-06 18:34 323 6 gusting 9 21.7
2020-Aug-06 18:29 317 6 gusting 9 21.7
2020-Aug-06 18:24 311 5 gusting 9 21.7
2020-Aug-06 18:19 309 4 gusting 8 21.7
2020-Aug-06 18:14 319 5 gusting 9 21.7
2020-Aug-06 18:09 291 4 gusting 9 21.7
2020-Aug-06 18:04 299 4 gusting 8 22.2
2020-Aug-06 17:59 266 3 gusting 6 22.8
2020-Aug-06 17:54 301 2 gusting 4 22.2
2020-Aug-06 17:49 302 2 gusting 4 22.2
2020-Aug-06 17:44 322 2 gusting 5 22.2
2020-Aug-06 17:39 316 2 gusting 5 22.2
2020-Aug-06 17:34 334 2 gusting 5 22.2
2020-Aug-06 17:29 297 3 gusting 6 22.2
2020-Aug-06 17:24 308 3 gusting 6 22.2
2020-Aug-06 17:19 024 3 gusting 6 22.2
2020-Aug-06 17:14 301 3 gusting 8 22.2
2020-Aug-06 17:09 035 4 gusting 8 22.2
2020-Aug-06 17:04 292 5 gusting 8 22.2
2020-Aug-06 16:59 316 5 gusting 9 21.7
2020-Aug-06 16:54 359 4 gusting 9 22.2
2020-Aug-06 16:49 306 4 gusting 9 21.7
2020-Aug-06 16:44 285 3 gusting 8 21.7
2020-Aug-06 16:39 326 3 gusting 8 21.7
2020-Aug-06 16:34 333 4 gusting 11 21.7
2020-Aug-06 16:29 331 5 gusting 11 21.7
2020-Aug-06 16:24 285 6 gusting 10 21.7
2020-Aug-06 16:19 257 6 gusting 10 21.7
2020-Aug-06 16:14 264 5 gusting 12 22.2
2020-Aug-06 16:09 308 5 gusting 12 22.2
2020-Aug-06 16:04 280 5 gusting 11 22.2
2020-Aug-06 15:59 300 5 gusting 11 22.2
2020-Aug-06 15:54 292 5 gusting 10 22.8
2020-Aug-06 15:49 278 6 gusting 10 22.8
2020-Aug-06 15:44 276 6 gusting 12 22.8
2020-Aug-06 15:39 285 5 gusting 12 23.3
2020-Aug-06 15:34 274 4 gusting 9 23.3
2020-Aug-06 15:29 302 3 gusting 9 23.3
2020-Aug-06 15:24 315 3 gusting 6 23.3
2020-Aug-06 15:19 318 3 gusting 6 23.3
2020-Aug-06 15:14 040 3 gusting 7 23.3
2020-Aug-06 15:09 350 3 gusting 7 22.8
2020-Aug-06 15:04 341 3 gusting 6 22.8
2020-Aug-06 14:59 022 3 gusting 6 22.8
2020-Aug-06 14:54 334 3 gusting 6 22.2
2020-Aug-06 14:49 015 2 gusting 6 22.2
2020-Aug-06 14:44 051 2 gusting 5 22.2
2020-Aug-06 14:39 335 3 gusting 7 21.7
2020-Aug-06 14:34 028 2 gusting 7 21.7
2020-Aug-06 14:29 310 3 gusting 6 21.1
2020-Aug-06 14:24 330 3 gusting 6 21.1
2020-Aug-06 14:19 311 3 gusting 7 21.1
2020-Aug-06 14:14 331 5 gusting 11 20.6
2020-Aug-06 14:09 331 6 gusting 11 20.6
2020-Aug-06 14:04 316 6 gusting 11 20.6
2020-Aug-06 13:59 314 4 gusting 8 20.6
2020-Aug-06 13:54 318 6 gusting 12 20.6
2020-Aug-06 13:49 317 6 gusting 13 20.6
2020-Aug-06 13:44 312 7 gusting 13 20.6
2020-Aug-06 13:39 309 6 gusting 13 21.1
2020-Aug-06 13:34 317 6 gusting 13 21.1
2020-Aug-06 13:29 301 6 gusting 13 21.1
2020-Aug-06 13:24 282 6 gusting 14 21.1
2020-Aug-06 13:19 356 6 gusting 14 21.7
2020-Aug-06 13:14 316 7 gusting 16 21.7
2020-Aug-06 13:09 314 6 gusting 16 21.7
2020-Aug-06 13:04 307 7 gusting 15 21.7
2020-Aug-06 12:59 279 8 gusting 18 22.2
2020-Aug-06 12:54 325 8 gusting 18 22.2
2020-Aug-06 12:49 320 8 gusting 19 22.8
2020-Aug-06 12:44 191 10 gusting 19 22.8
2020-Aug-06 12:39 288 9 gusting 19 23.3
2020-Aug-06 12:34 293 8 gusting 18 23.9
2020-Aug-06 12:29 278 7 gusting 17 24.4
2020-Aug-06 12:24 314 6 gusting 13 25.0
2020-Aug-06 12:19 278 6 gusting 16 25.6
2020-Aug-06 12:14 266 5 gusting 16 26.1
2020-Aug-06 12:09 227 5 gusting 12 26.7
2020-Aug-06 12:04 238 4 gusting 12 26.7
2020-Aug-06 11:59 265 4 gusting 9 26.7
2020-Aug-06 11:54 277 5 gusting 12 26.7
2020-Aug-06 11:49 207 5 gusting 12 27.2
2020-Aug-06 11:44 279 5 gusting 9 27.2
2020-Aug-06 11:39 293 6 gusting 11 27.2
2020-Aug-06 11:34 162 5 gusting 11 27.8
2020-Aug-06 11:29 227 4 gusting 9 27.8
2020-Aug-06 11:24 248 5 gusting 9 27.2
2020-Aug-06 11:19 297 6 gusting 11 27.2
2020-Aug-06 11:14 259 6 gusting 11 27.2
2020-Aug-06 11:09 281 5 gusting 10 27.2
2020-Aug-06 11:04 266 6 gusting 10 27.2
2020-Aug-06 10:59 267 6 gusting 11 26.7
2020-Aug-06 10:54 196 6 gusting 11 27.2
2020-Aug-06 10:49 285 5 gusting 10 27.2
2020-Aug-06 10:44 290 6 gusting 10 26.7
2020-Aug-06 10:39 290 6 gusting 9 26.7
2020-Aug-06 10:34 293 5 gusting 9 27.2
2020-Aug-06 10:29 258 4 gusting 8 27.2
2020-Aug-06 10:24 248 4 gusting 8 27.8
2020-Aug-06 10:19 271 4 gusting 7 27.8
2020-Aug-06 10:14 293 4 gusting 7 27.8
2020-Aug-06 10:09 299 4 gusting 7 27.8
2020-Aug-06 10:04 295 3 gusting 7 27.2
2020-Aug-06 09:59 295 3 gusting 6 27.2
2020-Aug-06 09:54 283 3 gusting 6 27.2
2020-Aug-06 09:49 267 3 gusting 6 27.2
2020-Aug-06 09:44 298 3 gusting 7 27.2
2020-Aug-06 09:39 312 4 gusting 7 27.2
2020-Aug-06 09:34 289 4 gusting 8 27.2
2020-Aug-06 09:29 271 5 gusting 8 26.7
2020-Aug-06 09:24 282 5 gusting 8 26.7
2020-Aug-06 09:19 244 5 gusting 8 26.7
2020-Aug-06 09:14 269 6 gusting 9 26.7
2020-Aug-06 09:09 264 6 gusting 10 26.1
2020-Aug-06 09:04 278 5 gusting 10 26.7
2020-Aug-06 08:59 295 4 gusting 8 26.7
2020-Aug-06 08:54 281 4 gusting 7 26.7
2020-Aug-06 08:49 260 4 gusting 6 26.7
2020-Aug-06 08:44 285 4 gusting 8 26.7
2020-Aug-06 08:39 291 4 gusting 8 26.1
2020-Aug-06 08:34 230 4 gusting 7 26.1
2020-Aug-06 08:29 285 3 gusting 6 26.7
2020-Aug-06 08:24 268 3 gusting 6 26.1
2020-Aug-06 08:19 250 2 gusting 5 26.1
2020-Aug-06 08:14 303 2 gusting 5 26.1
2020-Aug-06 08:09 302 3 gusting 5 26.1
2020-Aug-06 08:04 283 3 gusting 6 26.1
2020-Aug-06 07:59 324 3 gusting 6 26.1
2020-Aug-06 07:54 289 3 gusting 6 26.1
2020-Aug-06 07:49 266 2 gusting 6 26.7
2020-Aug-06 07:44 213 1 gusting 5 26.7
2020-Aug-06 07:39 248 1 gusting 4 26.7
2020-Aug-06 07:34 283 1 gusting 4 27.2
2020-Aug-06 07:29 208 1 gusting 4 27.2
2020-Aug-06 07:24 162 0 gusting 4 26.7
2020-Aug-06 07:19 242 1 gusting 4 26.7
2020-Aug-06 07:14 192 0 gusting 4 26.7
2020-Aug-06 07:09 265 0 gusting 3 26.7
2020-Aug-06 07:04 233 0 gusting 3 26.1
2020-Aug-06 06:59 226 1 gusting 3 26.1
2020-Aug-06 06:54 219 1 gusting 4 25.6
2020-Aug-06 06:49 277 1 gusting 4 25.6
2020-Aug-06 06:44 283 0 gusting 3 25.6
2020-Aug-06 06:39 259 1 gusting 4 25.6
2020-Aug-06 06:34 288 2 gusting 4 25.6
2020-Aug-06 06:29 266 1 gusting 4 25.6
2020-Aug-06 06:24 248 0 gusting 3 26.1
2020-Aug-06 06:19 127 0 gusting 2 26.1
2020-Aug-06 06:14 264 0 gusting 2 26.1
2020-Aug-06 06:09 165 0 gusting 3 25.6
2020-Aug-06 06:04 097 0 gusting 3 26.1
2020-Aug-06 05:59 101 26.7
2020-Aug-06 05:54 152 26.1
2020-Aug-06 05:49 231 25.6
2020-Aug-06 05:44 226 25.6
2020-Aug-06 05:39 175 0 gusting 2 25.0
2020-Aug-06 05:34 221 0 gusting 2 24.4
2020-Aug-06 05:29 221 0 gusting 2 24.4
2020-Aug-06 05:24 280 0 gusting 2 24.4
2020-Aug-06 05:19 175 0 gusting 4 24.4
2020-Aug-06 05:14 240 0 gusting 4 23.9
2020-Aug-06 05:09 262 0 gusting 2 24.4
2020-Aug-06 05:04 223 24.4
2020-Aug-06 04:59 223 23.9
2020-Aug-06 04:54 224 23.3
2020-Aug-06 04:49 110 23.3
2020-Aug-06 04:44 110 23.3
2020-Aug-06 04:39 114 23.3
2020-Aug-06 04:34 116 23.3
2020-Aug-06 04:29 110 23.3
2020-Aug-06 04:24 158 23.3
2020-Aug-06 04:19 158 22.8
2020-Aug-06 04:14 239 0 gusting 0 22.8
2020-Aug-06 04:09 271 0 gusting 1 22.8
2020-Aug-06 04:04 269 0 gusting 1 22.8
2020-Aug-06 03:59 249 22.2
2020-Aug-06 03:54 091 22.2
2020-Aug-06 03:49 091 22.2
2020-Aug-06 03:44 091 22.2
2020-Aug-06 03:39 091 22.2
2020-Aug-06 03:34 091 22.2
2020-Aug-06 03:29 091 22.2
2020-Aug-06 03:24 087 22.2
2020-Aug-06 03:19 095 22.2
2020-Aug-06 03:14 095 0 gusting 1 22.8
2020-Aug-06 03:09 095 22.8
2020-Aug-06 03:04 096 22.2
2020-Aug-06 02:59 096 0 gusting 1 22.2
2020-Aug-06 02:54 099 0 gusting 0 22.2
2020-Aug-06 02:49 110 0 gusting 1 22.2
2020-Aug-06 02:44 105 22.8
2020-Aug-06 02:39 099 0 gusting 0 22.8
2020-Aug-06 02:34 099 0 gusting 1 22.8
2020-Aug-06 02:29 098 22.8
2020-Aug-06 02:24 101 22.8
2020-Aug-06 02:19 101 22.8
2020-Aug-06 02:14 101 0 gusting 1 22.8
2020-Aug-06 02:09 099 0 gusting 1 22.8
2020-Aug-06 02:03 102 0 gusting 1 22.8
2020-Aug-06 01:58 091 0 gusting 1 22.8
2020-Aug-06 01:53 111 0 gusting 1 22.8
2020-Aug-06 01:48 151 22.8
2020-Aug-06 01:43 163 0 gusting 2 22.8
2020-Aug-06 01:38 129 1 gusting 4 22.8
2020-Aug-06 01:33 116 1 gusting 4 22.8
2020-Aug-06 01:29 219 1 gusting 4 22.2
2020-Aug-06 01:24 116 0 gusting 3 22.2
2020-Aug-06 01:18 170 0 gusting 2 22.2
2020-Aug-06 01:14 087 0 gusting 1 22.2
2020-Aug-06 01:08 112 22.2
2020-Aug-06 01:04 044 0 gusting 1 22.2
2020-Aug-06 00:58 043 1 gusting 4 22.2
2020-Aug-06 00:53 029 1 gusting 4 22.2
2020-Aug-06 00:48 331 1 gusting 3 22.2
2020-Aug-06 00:43 300 1 gusting 4 22.2
2020-Aug-06 00:38 340 1 gusting 4 22.2
2020-Aug-06 00:33 309 1 gusting 4 22.2
2020-Aug-06 00:28 304 2 gusting 4 22.2
2020-Aug-06 00:23 283 1 gusting 3 22.2
2020-Aug-06 00:18 271 1 gusting 3 22.2
2020-Aug-06 00:13 300 0 gusting 3 22.2
2020-Aug-06 00:08 008 0 gusting 1 22.2
2020-Aug-06 00:03 120 0 gusting 2 22.2